EIN908 EINN-LFPG

Flight info

Callsign EIN908
Flight time N/A
Altitude 39000
Route ABAGU3B ABAGU DCT ENJEX DCT AVZAC DCT ICOSA DCT RUHUN DCT UNZIB DCT NUCHU L18 MID/N0395F290 Y803 SFD UM605 BIBAX
Aircraft A21N/M-SDE2E3FGHIJ1RWXY/LB1

Departure

Time 2026-05-01 14:47
Airport Shannon Airport (EINN)

Arrival

Time N/A
Airport Charles de Gaulle International Airport (LFPG)
Time Latitude Longitude Altitude Speed Heading
2026-05-01 14:12 52.69391 -8.92408 18 ft 0 kts 185°
2026-05-01 14:33 52.69392 -8.92407 19 ft 1 kts 185°
2026-05-01 14:33 52.69406 -8.92405 19 ft 2 kts 185°
2026-05-01 14:33 52.69421 -8.92403 19 ft 2 kts 186°
2026-05-01 14:34 52.69436 -8.92400 18 ft 2 kts 186°
2026-05-01 14:34 52.69446 -8.92398 19 ft 2 kts 181°
2026-05-01 14:34 52.69460 -8.92405 19 ft 2 kts 149°
2026-05-01 14:34 52.69471 -8.92421 19 ft 2 kts 123°
2026-05-01 14:35 52.69477 -8.92442 19 ft 1 kts 99°
2026-05-01 14:35 52.69478 -8.92452 19 ft 1 kts 94°
2026-05-01 14:35 52.69478 -8.92456 19 ft 0 kts 95°
2026-05-01 14:37 52.69478 -8.92448 19 ft 2 kts 95°
2026-05-01 14:37 52.69475 -8.92403 19 ft 5 kts 97°
2026-05-01 14:38 52.69494 -8.92313 18 ft 10 kts 43°
2026-05-01 14:38 52.69493 -8.92210 18 ft 10 kts 112°
2026-05-01 14:38 52.69470 -8.92091 17 ft 11 kts 103°
2026-05-01 14:38 52.69450 -8.91957 17 ft 12 kts 102°
2026-05-01 14:39 52.69424 -8.91816 16 ft 13 kts 119°
2026-05-01 14:39 52.69346 -8.91749 16 ft 13 kts 162°
2026-05-01 14:39 52.69287 -8.91667 16 ft 6 kts 128°
2026-05-01 14:39 52.69254 -8.91600 16 ft 7 kts 128°
2026-05-01 14:40 52.69267 -8.91526 16 ft 7 kts 25°
2026-05-01 14:40 52.69320 -8.91490 16 ft 8 kts 19°
2026-05-01 14:40 52.69383 -8.91459 16 ft 10 kts 17°
2026-05-01 14:40 52.69455 -8.91423 16 ft 11 kts 17°
2026-05-01 14:41 52.69532 -8.91381 16 ft 12 kts 19°
2026-05-01 14:41 52.69613 -8.91332 15 ft 12 kts 17°
2026-05-01 14:41 52.69699 -8.91283 15 ft 13 kts 20°
2026-05-01 14:41 52.69790 -8.91232 15 ft 14 kts 18°
2026-05-01 14:42 52.69885 -8.91180 15 ft 14 kts 18°
2026-05-01 14:42 52.69981 -8.91122 16 ft 15 kts 21°
2026-05-01 14:42 52.70081 -8.91063 16 ft 15 kts 19°
2026-05-01 14:42 52.70181 -8.91006 16 ft 15 kts 18°
2026-05-01 14:43 52.70284 -8.90952 17 ft 15 kts 17°
2026-05-01 14:43 52.70385 -8.90900 17 ft 15 kts 17°
2026-05-01 14:43 52.70487 -8.90847 17 ft 15 kts 18°
2026-05-01 14:43 52.70590 -8.90791 18 ft 15 kts 18°
2026-05-01 14:44 52.70692 -8.90735 19 ft 15 kts 18°
2026-05-01 14:44 52.70875 -8.90667 20 ft 0 kts 304°
2026-05-01 14:44 52.70878 -8.90675 20 ft 1 kts 302°
2026-05-01 14:45 52.70887 -8.90696 20 ft 2 kts 311°
2026-05-01 14:45 52.70943 -8.90782 21 ft 7 kts 314°
2026-05-01 14:45 52.70939 -8.90898 21 ft 13 kts 228°
2026-05-01 14:46 52.70851 -8.91086 20 ft 29 kts 230°
2026-05-01 14:46 52.70157 -8.92558 22 ft 152 kts 232°
2026-05-01 14:46 52.69482 -8.94014 606 ft 164 kts 229°
2026-05-01 14:47 52.68695 -8.95380 1384 ft 167 kts 205°
2026-05-01 14:47 52.67618 -8.95554 2245 ft 165 kts 168°
2026-05-01 14:47 52.66460 -8.95084 2864 ft 183 kts 166°
2026-05-01 14:48 52.63722 -8.94136 4233 ft 216 kts 172°
2026-05-01 14:48 52.62221 -8.93767 5041 ft 223 kts 172°
2026-05-01 14:48 52.59448 -8.91987 7015 ft 231 kts 128°
2026-05-01 14:49 52.58706 -8.86530 8336 ft 269 kts 97°
2026-05-01 14:49 52.58431 -8.80154 9943 ft 287 kts 98°
2026-05-01 14:50 52.58200 -8.75809 11153 ft 291 kts 99°
2026-05-01 14:50 52.57648 -8.66933 13442 ft 300 kts 101°
2026-05-01 14:51 52.57423 -8.63529 14277 ft 303 kts 102°
2026-05-01 14:51 52.56957 -8.56643 15861 ft 311 kts 102°
2026-05-01 14:52 52.56473 -8.49544 17434 ft 317 kts 102°
2026-05-01 14:52 52.56226 -8.45952 18184 ft 320 kts 103°
2026-05-01 14:52 52.55720 -8.38670 19668 ft 325 kts 103°
2026-05-01 14:53 52.55464 -8.34991 20378 ft 328 kts 104°
2026-05-01 14:53 52.55207 -8.31325 21078 ft 330 kts 104°
2026-05-01 14:53 52.54941 -8.27554 21752 ft 333 kts 104°
2026-05-01 14:53 52.54675 -8.23786 22425 ft 336 kts 104°
2026-05-01 14:54 52.54403 -8.19964 23075 ft 338 kts 104°
2026-05-01 14:54 52.54132 -8.16155 23684 ft 341 kts 104°
2026-05-01 14:54 52.53852 -8.12264 24299 ft 344 kts 104°
2026-05-01 14:54 52.53574 -8.08414 24917 ft 346 kts 105°
2026-05-01 14:55 52.53287 -8.04464 25498 ft 349 kts 105°
2026-05-01 14:55 52.53001 -8.00526 26059 ft 352 kts 105°
2026-05-01 14:55 52.52707 -7.96508 26621 ft 354 kts 105°
2026-05-01 14:55 52.52415 -7.92548 27157 ft 356 kts 105°
2026-05-01 14:56 52.52113 -7.88463 27651 ft 360 kts 105°
2026-05-01 14:56 52.51813 -7.84411 28179 ft 361 kts 105°
2026-05-01 14:56 52.51510 -7.80355 28661 ft 364 kts 105°
2026-05-01 14:56 52.51197 -7.76208 29125 ft 366 kts 105°
2026-05-01 14:57 52.50880 -7.72095 29578 ft 367 kts 107°
2026-05-01 14:57 52.49797 -7.63993 30480 ft 364 kts 114°
2026-05-01 14:57 52.48994 -7.60048 30734 ft 367 kts 118°
2026-05-01 14:58 52.48010 -7.56151 30890 ft 372 kts 120°
2026-05-01 14:58 52.46962 -7.52277 31041 ft 380 kts 120°
2026-05-01 14:58 52.45881 -7.48292 31194 ft 388 kts 120°
2026-05-01 14:58 52.44783 -7.44245 31335 ft 395 kts 120°
2026-05-01 14:59 52.43654 -7.40096 31470 ft 402 kts 120°
2026-05-01 14:59 52.42509 -7.35891 31639 ft 408 kts 120°
2026-05-01 14:59 52.41355 -7.31648 31965 ft 409 kts 120°
2026-05-01 14:59 52.40210 -7.27446 32398 ft 407 kts 121°
2026-05-01 15:00 52.37912 -7.19036 33220 ft 404 kts 121°
2026-05-01 15:00 52.36762 -7.14848 33601 ft 403 kts 121°
2026-05-01 15:00 52.35616 -7.10684 33948 ft 402 kts 120°
2026-05-01 15:01 52.34478 -7.06548 34295 ft 401 kts 120°
2026-05-01 15:01 52.33333 -7.02403 34619 ft 400 kts 120°
2026-05-01 15:01 52.32197 -6.98299 34867 ft 400 kts 120°
2026-05-01 15:01 52.31045 -6.94150 35098 ft 401 kts 120°
2026-05-01 15:02 52.29911 -6.90068 35309 ft 401 kts 120°
2026-05-01 15:02 52.27601 -6.81773 35704 ft 403 kts 120°
2026-05-01 15:02 52.26446 -6.77636 35882 ft 404 kts 120°
2026-05-01 15:03 52.25277 -6.73453 36059 ft 405 kts 120°
2026-05-01 15:03 52.24115 -6.69308 36240 ft 406 kts 120°
2026-05-01 15:03 52.22950 -6.65155 36440 ft 407 kts 120°
2026-05-01 15:03 52.21768 -6.60950 36666 ft 407 kts 119°
2026-05-01 15:04 52.20589 -6.56765 36832 ft 408 kts 119°
2026-05-01 15:04 52.19407 -6.52571 37094 ft 409 kts 119°
2026-05-01 15:04 52.18224 -6.48386 37282 ft 409 kts 119°
2026-05-01 15:04 52.17039 -6.44200 37422 ft 411 kts 119°
2026-05-01 15:05 52.15836 -6.39961 37587 ft 413 kts 119°
2026-05-01 15:05 52.14644 -6.35765 37742 ft 414 kts 119°
2026-05-01 15:05 52.13434 -6.31513 37868 ft 415 kts 120°
2026-05-01 15:05 52.12217 -6.27248 38026 ft 416 kts 120°
2026-05-01 15:06 52.11008 -6.23017 38196 ft 417 kts 120°
2026-05-01 15:06 52.09784 -6.18736 38317 ft 419 kts 120°
2026-05-01 15:06 52.08564 -6.14483 38437 ft 420 kts 120°
2026-05-01 15:06 52.07327 -6.10180 38548 ft 422 kts 120°
2026-05-01 15:07 52.06092 -6.05887 38670 ft 423 kts 120°
2026-05-01 15:07 52.04855 -6.01566 38808 ft 424 kts 119°
2026-05-01 15:07 52.03620 -5.97170 38914 ft 425 kts 119°
2026-05-01 15:07 52.02404 -5.92826 39063 ft 426 kts 119°
2026-05-01 15:08 52.01185 -5.88485 39129 ft 427 kts 119°
2026-05-01 15:08 51.98727 -5.79763 39145 ft 428 kts 119°
2026-05-01 15:09 51.96254 -5.71030 39136 ft 428 kts 119°
2026-05-01 15:09 51.93764 -5.62277 39142 ft 428 kts 119°
2026-05-01 15:10 51.91272 -5.53549 39147 ft 428 kts 119°
2026-05-01 15:10 51.87533 -5.40513 39141 ft 427 kts 119°
2026-05-01 15:11 51.83790 -5.27537 39158 ft 427 kts 120°
2026-05-01 15:12 51.81273 -5.18857 39173 ft 427 kts 120°
2026-05-01 15:12 51.77944 -5.05542 39143 ft 432 kts 112°
2026-05-01 15:14 51.74744 -4.81842 39144 ft 435 kts 105°
2026-05-01 15:14 51.73025 -4.67498 39136 ft 436 kts 105°
2026-05-01 15:15 51.70705 -4.48429 39148 ft 436 kts 105°
2026-05-01 15:16 51.68340 -4.29263 39133 ft 436 kts 106°
2026-05-01 15:18 51.65357 -4.05465 39141 ft 436 kts 106°
2026-05-01 15:19 51.62922 -3.86369 39130 ft 437 kts 105°
2026-05-01 15:19 51.61082 -3.72102 39129 ft 437 kts 105°
2026-05-01 15:20 51.59378 -3.57776 39129 ft 440 kts 101°
2026-05-01 15:21 51.58764 -3.48002 39133 ft 441 kts 98°
2026-05-01 15:21 51.58199 -3.38223 39134 ft 441 kts 99°
2026-05-01 15:22 51.57332 -3.23597 39125 ft 440 kts 99°
2026-05-01 15:22 51.56743 -3.13860 39125 ft 441 kts 99°
2026-05-01 15:23 51.56142 -3.04097 39124 ft 441 kts 99°
2026-05-01 15:23 51.55535 -2.94331 39109 ft 440 kts 99°
2026-05-01 15:24 51.54920 -2.84608 39106 ft 441 kts 99°
2026-05-01 15:24 51.54292 -2.74794 39113 ft 441 kts 99°
2026-05-01 15:25 51.53659 -2.65052 39113 ft 442 kts 99°
2026-05-01 15:25 51.53022 -2.55325 39106 ft 442 kts 99°
2026-05-01 15:26 51.52372 -2.45564 39112 ft 442 kts 98°
2026-05-01 15:26 51.51709 -2.35745 39108 ft 442 kts 98°
2026-05-01 15:27 51.51042 -2.25964 39110 ft 443 kts 99°
2026-05-01 15:28 51.50028 -2.11329 39109 ft 442 kts 99°
2026-05-01 15:28 51.49337 -2.01547 39112 ft 443 kts 99°
2026-05-01 15:29 51.48292 -1.86907 39125 ft 443 kts 99°
2026-05-01 15:30 51.46149 -1.67618 39128 ft 440 kts 108°
2026-05-01 15:31 51.39003 -1.40852 39130 ft 437 kts 117°
2026-05-01 15:32 51.33723 -1.23396 39129 ft 436 kts 121°
2026-05-01 15:34 51.23204 -0.99905 39131 ft 435 kts 129°